Time,TemperatureF,DewpointF,PressureIn,WindDirection,WindDirectionDegrees,WindSpeedMPH,WindSpeedGustMPH,Humidity,HourlyPrecipIn,Conditions,Clouds,dailyrainin,SoftwareType,DateUTC
2013-06-22 00:01:00,69.6,39.3,26.75,NE,53,5.8,5.8,33,0.00,,---,0.00,VWS V14.01,2013-06-22 05:01:00,
2013-06-22 00:06:00,69.4,39.1,26.75,NE,56,5.4,5.4,33,0.00,,---,0.00,VWS V14.01,2013-06-22 05:06:00,
2013-06-22 00:11:00,69.4,39.1,26.75,East,101,4.9,5.8,33,0.00,,---,0.00,VWS V14.01,2013-06-22 05:11:00,
2013-06-22 00:16:00,69.3,39.0,26.78,ENE,59,2.7,2.7,33,0.00,,---,0.00,VWS V14.01,2013-06-22 05:16:00,
2013-06-22 00:21:00,69.4,39.1,26.78,NE,44,5.4,7.2,33,0.00,,---,0.00,VWS V14.01,2013-06-22 05:21:00,
2013-06-22 00:26:00,69.6,39.3,26.78,ENE,71,3.1,3.1,33,0.00,,---,0.00,VWS V14.01,2013-06-22 05:26:00,
2013-06-22 00:31:00,69.8,38.6,26.78,East,89,3.6,7.6,32,0.00,,---,0.00,VWS V14.01,2013-06-22 05:31:00,
2013-06-22 00:36:00,69.6,39.3,26.78,East,95,5.8,5.8,33,0.00,,---,0.00,VWS V14.01,2013-06-22 05:36:00,
2013-06-22 00:41:00,68.9,38.6,26.78,NE,48,2.7,3.6,33,0.00,,---,0.00,VWS V14.01,2013-06-22 05:41:00,
2013-06-22 00:46:00,68.4,38.2,26.78,NE,48,3.6,3.6,33,0.00,,---,0.00,VWS V14.01,2013-06-22 05:46:00,
2013-06-22 00:51:00,68.2,38.0,26.78,NE,45,6.3,6.3,33,0.00,,---,0.00,VWS V14.01,2013-06-22 05:51:00,
2013-06-22 00:56:00,68.0,37.8,26.78,North,11,3.1,3.1,33,0.00,,---,0.00,VWS V14.01,2013-06-22 05:56:00,
2013-06-22 01:01:00,67.8,37.7,26.81,ENE,75,2.2,2.2,33,0.00,,---,0.00,VWS V14.01,2013-06-22 06:01:00,
2013-06-22 01:06:00,67.6,37.5,26.81,ENE,60,2.7,2.7,33,0.00,,---,0.00,VWS V14.01,2013-06-22 06:06:00,
2013-06-22 01:11:00,67.6,37.5,26.81,NE,54,0.0,2.7,33,0.00,,---,0.00,VWS V14.01,2013-06-22 06:11:00,
2013-06-22 01:16:00,67.8,37.7,26.84,ENE,65,2.2,2.2,33,0.00,,---,0.00,VWS V14.01,2013-06-22 06:16:00,
2013-06-22 01:21:00,68.0,37.8,26.84,ENE,66,3.6,3.6,33,0.00,,---,0.00,VWS V14.01,2013-06-22 06:21:00,
2013-06-22 01:26:00,68.4,38.2,26.84,NE,38,6.3,6.3,33,0.00,,---,0.00,VWS V14.01,2013-06-22 06:26:00,
2013-06-22 01:31:00,68.4,38.2,26.81,NE,34,6.3,6.3,33,0.00,,---,0.00,VWS V14.01,2013-06-22 06:31:00,
2013-06-22 01:36:00,68.4,38.2,26.81,NE,47,2.2,3.1,33,0.00,,---,0.00,VWS V14.01,2013-06-22 06:36:00,
2013-06-22 01:41:00,68.2,38.0,26.81,NE,45,4.0,4.0,33,0.00,,---,0.00,VWS V14.01,2013-06-22 06:41:00,
2013-06-22 01:46:00,68.2,38.0,26.81,NE,54,3.6,3.6,33,0.00,,---,0.00,VWS V14.01,2013-06-22 06:46:00,
2013-06-22 01:51:00,68.4,38.2,26.81,NE,46,5.4,5.4,33,0.00,,---,0.00,VWS V14.01,2013-06-22 06:51:00,
2013-06-22 01:56:00,68.7,38.5,26.81,NE,40,4.9,4.9,33,0.00,,---,0.00,VWS V14.01,2013-06-22 06:56:00,
2013-06-22 02:01:00,69.4,39.1,26.81,NE,34,4.0,4.0,33,0.00,,---,0.00,VWS V14.01,2013-06-22 07:01:00,
2013-06-22 02:06:00,69.3,39.0,26.81,ENE,65,5.8,5.8,33,0.00,,---,0.00,VWS V14.01,2013-06-22 07:06:00,
2013-06-22 02:11:00,69.4,39.1,26.81,ENE,60,5.8,5.8,33,0.00,,---,0.00,VWS V14.01,2013-06-22 07:11:00,
2013-06-22 02:16:00,69.3,39.0,26.81,ENE,76,8.1,8.1,33,0.00,,---,0.00,VWS V14.01,2013-06-22 07:16:00,
2013-06-22 02:21:00,69.1,38.8,26.81,East,84,4.0,4.0,33,0.00,,---,0.00,VWS V14.01,2013-06-22 07:21:00,
2013-06-22 02:26:00,69.1,38.8,26.81,NE,50,4.0,6.3,33,0.00,,---,0.00,VWS V14.01,2013-06-22 07:26:00,
2013-06-22 02:31:00,69.1,38.8,26.81,NE,40,6.3,6.3,33,0.00,,---,0.00,VWS V14.01,2013-06-22 07:31:00,
2013-06-22 02:36:00,69.1,38.8,26.81,NE,50,6.3,6.3,33,0.00,,---,0.00,VWS V14.01,2013-06-22 07:36:00,
2013-06-22 02:41:00,69.4,39.1,26.81,ENE,59,10.1,10.1,33,0.00,,---,0.00,VWS V14.01,2013-06-22 07:41:00,
2013-06-22 02:46:00,69.4,39.1,26.81,NE,44,4.9,5.8,33,0.00,,---,0.00,VWS V14.01,2013-06-22 07:46:00,
2013-06-22 02:51:00,69.4,39.1,26.81,NE,42,5.4,8.1,33,0.00,,---,0.00,VWS V14.01,2013-06-22 07:51:00,
2013-06-22 02:56:00,69.3,39.0,26.81,NE,55,2.2,3.1,33,0.00,,---,0.00,VWS V14.01,2013-06-22 07:56:00,
2013-06-22 03:01:00,69.3,39.0,26.84,NE,46,2.7,2.7,33,0.00,,---,0.00,VWS V14.01,2013-06-22 08:01:00,
2013-06-22 03:06:00,69.1,38.8,26.84,NNW,337,0.0,0.0,33,0.00,,---,0.00,VWS V14.01,2013-06-22 08:06:00,
2013-06-22 03:11:00,68.9,38.6,26.84,ENE,70,2.7,2.7,33,0.00,,---,0.00,VWS V14.01,2013-06-22 08:11:00,
2013-06-22 03:16:00,69.1,38.8,26.84,NE,41,3.1,3.1,33,0.00,,---,0.00,VWS V14.01,2013-06-22 08:16:00,
2013-06-22 03:21:00,68.9,38.6,26.84,NE,49,5.8,5.8,33,0.00,,---,0.00,VWS V14.01,2013-06-22 08:21:00,
2013-06-22 03:26:00,68.9,38.6,26.84,NE,52,4.9,4.9,33,0.00,,---,0.00,VWS V14.01,2013-06-22 08:26:00,
2013-06-22 03:31:00,68.7,38.5,26.84,NE,45,3.1,3.1,33,0.00,,---,0.00,VWS V14.01,2013-06-22 08:31:00,
2013-06-22 03:36:00,68.4,38.2,26.84,East,79,0.0,0.0,33,0.00,,---,0.00,VWS V14.01,2013-06-22 08:36:00,
2013-06-22 03:41:00,68.4,38.2,26.84,WNW,287,2.2,2.2,33,0.00,,---,0.00,VWS V14.01,2013-06-22 08:41:00,
2013-06-22 03:46:00,68.2,38.0,26.84,ENE,61,2.7,2.7,33,0.00,,---,0.00,VWS V14.01,2013-06-22 08:46:00,
2013-06-22 03:51:00,68.2,38.0,26.84,NE,43,3.1,3.6,33,0.00,,---,0.00,VWS V14.01,2013-06-22 08:51:00,
2013-06-22 03:56:00,68.2,38.0,26.84,NE,51,4.0,4.0,33,0.00,,---,0.00,VWS V14.01,2013-06-22 08:56:00,
2013-06-22 04:01:00,68.4,38.2,26.87,NE,44,3.1,3.1,33,0.00,,---,0.00,VWS V14.01,2013-06-22 09:01:00,
2013-06-22 04:06:00,67.8,37.7,26.87,NNW,327,4.0,4.0,33,0.00,,---,0.00,VWS V14.01,2013-06-22 09:06:00,
2013-06-22 04:11:00,68.4,38.2,26.87,North,11,5.4,5.4,33,0.00,,---,0.00,VWS V14.01,2013-06-22 09:11:00,
2013-06-22 04:16:00,68.9,38.6,26.87,NNE,30,3.1,3.1,33,0.00,,---,0.00,VWS V14.01,2013-06-22 09:16:00,
2013-06-22 04:21:00,69.3,39.0,26.87,NE,36,3.1,3.1,33,0.00,,---,0.00,VWS V14.01,2013-06-22 09:21:00,
2013-06-22 04:26:00,69.1,38.8,26.87,NNW,344,3.6,3.6,33,0.00,,---,0.00,VWS V14.01,2013-06-22 09:26:00,
2013-06-22 04:31:00,68.7,38.5,26.87,NE,44,5.4,5.4,33,0.00,,---,0.00,VWS V14.01,2013-06-22 09:31:00,
2013-06-22 04:36:00,68.4,38.2,26.87,NW,316,2.7,2.7,33,0.00,,---,0.00,VWS V14.01,2013-06-22 09:36:00,
2013-06-22 04:41:00,68.0,37.8,26.87,NE,52,2.7,3.6,33,0.00,,---,0.00,VWS V14.01,2013-06-22 09:41:00,
2013-06-22 04:46:00,67.8,37.7,26.87,NNE,18,4.0,4.0,33,0.00,,---,0.00,VWS V14.01,2013-06-22 09:46:00,
2013-06-22 04:51:00,66.7,36.8,26.87,ENE,65,6.3,6.3,33,0.00,,---,0.00,VWS V14.01,2013-06-22 09:51:00,
2013-06-22 04:56:00,65.7,35.8,26.87,NE,37,4.5,4.5,33,0.00,,---,0.00,VWS V14.01,2013-06-22 09:56:00,
2013-06-22 05:01:00,66.0,36.1,26.84,East,79,8.1,8.1,33,0.00,,---,0.00,VWS V14.01,2013-06-22 10:01:00,
2013-06-22 05:06:00,66.2,36.3,26.84,SSE,149,5.4,6.3,33,0.00,,---,0.00,VWS V14.01,2013-06-22 10:06:00,
2013-06-22 05:11:00,66.0,36.1,26.84,NNE,29,8.1,8.1,33,0.00,,---,0.00,VWS V14.01,2013-06-22 10:11:00,
2013-06-22 05:16:00,65.8,36.0,26.81,ENE,61,5.4,5.4,33,0.00,,---,0.00,VWS V14.01,2013-06-22 10:16:00,
2013-06-22 05:21:00,65.5,35.6,26.81,ENE,69,8.1,8.1,33,0.00,,---,0.00,VWS V14.01,2013-06-22 10:21:00,
2013-06-22 05:26:00,65.5,35.6,26.81,NNE,32,3.6,8.1,33,0.00,,---,0.00,VWS V14.01,2013-06-22 10:26:00,
2013-06-22 05:31:00,65.5,35.6,26.81,East,92,4.0,4.0,33,0.00,,---,0.00,VWS V14.01,2013-06-22 10:31:00,
2013-06-22 05:36:00,64.6,34.8,26.81,East,86,2.7,2.7,33,0.00,,---,0.00,VWS V14.01,2013-06-22 10:36:00,
2013-06-22 05:41:00,64.4,34.7,26.81,SE,136,5.8,5.8,33,0.00,,---,0.00,VWS V14.01,2013-06-22 10:41:00,
2013-06-22 05:46:00,64.6,34.8,26.81,ENE,65,4.0,4.0,33,0.00,,---,0.00,VWS V14.01,2013-06-22 10:46:00,
2013-06-22 05:51:00,64.6,34.8,26.81,ESE,106,5.8,5.8,33,0.00,,---,0.00,VWS V14.01,2013-06-22 10:51:00,
2013-06-22 05:56:00,64.8,35.0,26.81,East,79,6.3,6.3,33,0.00,,---,0.00,VWS V14.01,2013-06-22 10:56:00,
2013-06-22 06:01:00,64.6,34.8,26.81,NNE,25,5.4,5.4,33,0.00,,---,0.00,VWS V14.01,2013-06-22 11:01:00,
2013-06-22 06:06:00,64.4,34.7,26.81,East,85,4.9,4.9,33,0.00,,---,0.00,VWS V14.01,2013-06-22 11:06:00,
2013-06-22 06:11:00,64.0,35.1,26.81,East,91,3.1,3.1,34,0.00,,---,0.00,VWS V14.01,2013-06-22 11:11:00,
2013-06-22 06:16:00,63.7,34.8,26.81,East,90,5.4,5.4,34,0.00,,---,0.00,VWS V14.01,2013-06-22 11:16:00,
2013-06-22 06:21:00,64.0,35.1,26.81,East,87,4.9,4.9,34,0.00,,---,0.00,VWS V14.01,2013-06-22 11:21:00,
2013-06-22 06:26:00,64.2,35.3,26.81,East,93,4.9,5.4,34,0.00,,---,0.00,VWS V14.01,2013-06-22 11:26:00,
2013-06-22 06:31:00,64.4,34.7,26.81,East,91,5.4,5.8,33,0.00,,---,0.00,VWS V14.01,2013-06-22 11:31:00,
2013-06-22 06:36:00,64.8,35.0,26.81,ESE,112,4.0,4.0,33,0.00,,---,0.00,VWS V14.01,2013-06-22 11:36:00,
2013-06-22 06:41:00,65.1,35.3,26.81,East,84,6.3,6.3,33,0.00,,---,0.00,VWS V14.01,2013-06-22 11:41:00,
2013-06-22 06:46:00,65.5,35.6,26.81,East,80,6.3,6.3,33,0.00,,---,0.00,VWS V14.01,2013-06-22 11:46:00,
2013-06-22 06:51:00,65.7,35.8,26.81,NNE,32,5.8,5.8,33,0.00,,---,0.00,VWS V14.01,2013-06-22 11:51:00,
2013-06-22 06:56:00,66.0,36.1,26.81,East,88,5.8,5.8,33,0.00,,---,0.00,VWS V14.01,2013-06-22 11:56:00,
2013-06-22 07:01:00,66.2,36.3,26.81,ESE,108,5.8,5.8,33,0.00,,---,0.00,VWS V14.01,2013-06-22 12:01:00,
2013-06-22 07:06:00,66.0,36.1,26.81,ESE,105,7.6,7.6,33,0.00,,---,0.00,VWS V14.01,2013-06-22 12:06:00,
2013-06-22 07:11:00,66.2,36.3,26.81,ESE,115,5.4,5.4,33,0.00,,---,0.00,VWS V14.01,2013-06-22 12:11:00,
2013-06-22 07:16:00,66.7,36.8,26.81,ENE,70,9.2,9.2,33,0.00,,---,0.00,VWS V14.01,2013-06-22 12:16:00,
2013-06-22 07:21:00,66.9,36.9,26.81,ESE,107,5.8,5.8,33,0.00,,---,0.00,VWS V14.01,2013-06-22 12:21:00,
2013-06-22 07:26:00,67.1,37.1,26.81,NNE,28,7.6,8.3,33,0.00,,---,0.00,VWS V14.01,2013-06-22 12:26:00,
2013-06-22 07:31:00,67.5,37.4,26.78,East,89,7.6,7.6,33,0.00,,---,0.00,VWS V14.01,2013-06-22 12:31:00,
2013-06-22 07:36:00,67.5,37.4,26.78,ESE,116,5.4,5.4,33,0.00,,---,0.00,VWS V14.01,2013-06-22 12:36:00,
2013-06-22 07:41:00,67.6,37.5,26.78,East,89,6.3,6.3,33,0.00,,---,0.00,VWS V14.01,2013-06-22 12:41:00,
2013-06-22 07:46:00,67.3,37.2,26.78,ESE,123,8.3,8.3,33,0.00,,---,0.00,VWS V14.01,2013-06-22 12:46:00,
2013-06-22 07:51:00,67.3,37.2,26.78,East,97,8.1,8.1,33,0.00,,---,0.00,VWS V14.01,2013-06-22 12:51:00,
2013-06-22 07:56:00,67.3,37.2,26.78,ESE,102,5.8,7.6,33,0.00,,---,0.00,VWS V14.01,2013-06-22 12:56:00,
2013-06-22 08:01:00,67.3,37.2,26.81,East,93,9.2,9.2,33,0.00,,---,0.00,VWS V14.01,2013-06-22 13:01:00,
2013-06-22 08:06:00,67.3,37.2,26.81,ENE,59,5.4,5.4,33,0.00,,---,0.00,VWS V14.01,2013-06-22 13:06:00,
2013-06-22 08:11:00,67.5,37.4,26.81,East,95,5.8,5.8,33,0.00,,---,0.00,VWS V14.01,2013-06-22 13:11:00,
2013-06-22 08:16:00,67.6,37.5,26.78,East,97,5.8,5.8,33,0.00,,---,0.00,VWS V14.01,2013-06-22 13:16:00,
2013-06-22 08:21:00,67.6,37.5,26.78,East,84,5.4,5.4,33,0.00,,---,0.00,VWS V14.01,2013-06-22 13:21:00,
2013-06-22 08:26:00,67.8,37.7,26.78,East,86,5.8,5.8,33,0.00,,---,0.00,VWS V14.01,2013-06-22 13:26:00,
2013-06-22 08:31:00,68.2,38.0,26.81,ENE,66,5.8,5.8,33,0.00,,---,0.00,VWS V14.01,2013-06-22 13:31:00,
2013-06-22 08:36:00,68.4,38.2,26.81,East,95,4.0,5.4,33,0.00,,---,0.00,VWS V14.01,2013-06-22 13:36:00,
2013-06-22 08:41:00,68.4,38.2,26.81,East,87,6.3,6.3,33,0.00,,---,0.00,VWS V14.01,2013-06-22 13:41:00,
2013-06-22 08:46:00,68.7,38.5,26.81,East,88,5.8,5.8,33,0.00,,---,0.00,VWS V14.01,2013-06-22 13:46:00,
2013-06-22 08:51:00,68.9,38.6,26.81,East,88,4.0,4.0,33,0.00,,---,0.00,VWS V14.01,2013-06-22 13:51:00,
2013-06-22 08:56:00,68.9,38.6,26.81,NE,52,3.6,3.6,33,0.00,,---,0.00,VWS V14.01,2013-06-22 13:56:00,
2013-06-22 09:01:00,69.1,38.8,26.81,East,99,4.0,4.0,33,0.00,,---,0.00,VWS V14.01,2013-06-22 14:01:00,
2013-06-22 09:06:00,69.3,39.0,26.81,East,94,5.8,5.8,33,0.00,,---,0.00,VWS V14.01,2013-06-22 14:06:00,
2013-06-22 09:11:00,69.6,39.3,26.81,ESE,118,8.1,8.1,33,0.00,,---,0.00,VWS V14.01,2013-06-22 14:11:00,
2013-06-22 09:16:00,69.8,38.6,26.81,East,95,6.7,6.7,32,0.00,,---,0.00,VWS V14.01,2013-06-22 14:16:00,
2013-06-22 09:21:00,69.8,38.6,26.81,East,88,5.4,5.4,32,0.00,,---,0.00,VWS V14.01,2013-06-22 14:21:00,
2013-06-22 09:26:00,70.0,38.8,26.81,East,85,5.4,5.4,32,0.00,,---,0.00,VWS V14.01,2013-06-22 14:26:00,
2013-06-22 09:31:00,70.2,39.0,26.81,ESE,104,4.0,4.0,32,0.00,,---,0.00,VWS V14.01,2013-06-22 14:31:00,
2013-06-22 09:36:00,69.8,38.6,26.81,ENE,63,8.7,8.7,32,0.00,,---,0.00,VWS V14.01,2013-06-22 14:36:00,
2013-06-22 09:41:00,70.5,39.3,26.81,East,95,3.6,5.4,32,0.00,,---,0.00,VWS V14.01,2013-06-22 14:41:00,
2013-06-22 09:46:00,71.8,40.4,26.81,East,90,4.0,4.0,32,0.00,,---,0.00,VWS V14.01,2013-06-22 14:46:00,
2013-06-22 09:51:00,72.0,40.5,26.81,East,85,6.3,6.3,32,0.00,,---,0.00,VWS V14.01,2013-06-22 14:51:00,
2013-06-22 09:56:00,71.8,40.4,26.81,East,91,5.8,5.8,32,0.00,,---,0.00,VWS V14.01,2013-06-22 14:56:00,
2013-06-22 10:01:00,73.8,41.3,26.81,ESE,117,4.0,4.0,31,0.00,,---,0.00,VWS V14.01,2013-06-22 15:01:00,
2013-06-22 10:06:00,74.1,41.6,26.81,East,98,3.1,3.6,31,0.00,,---,0.00,VWS V14.01,2013-06-22 15:06:00,
2013-06-22 10:11:00,73.6,41.1,26.81,ESE,102,3.6,5.8,31,0.00,,---,0.00,VWS V14.01,2013-06-22 15:11:00,
2013-06-22 10:16:00,73.2,41.6,26.81,East,92,3.1,3.1,32,0.00,,---,0.00,VWS V14.01,2013-06-22 15:16:00,
2013-06-22 10:21:00,72.9,41.3,26.81,ESE,111,4.9,4.9,32,0.00,,---,0.00,VWS V14.01,2013-06-22 15:21:00,
2013-06-22 10:26:00,73.4,41.0,26.81,ESE,109,4.0,4.0,31,0.00,,---,0.00,VWS V14.01,2013-06-22 15:26:00,
2013-06-22 10:31:00,73.4,41.0,26.81,SE,129,5.4,5.4,31,0.00,,---,0.00,VWS V14.01,2013-06-22 15:31:00,
2013-06-22 10:36:00,74.3,41.7,26.81,East,100,2.7,4.0,31,0.00,,---,0.00,VWS V14.01,2013-06-22 15:36:00,
2013-06-22 10:41:00,74.7,42.0,26.81,ESE,104,3.1,4.0,31,0.00,,---,0.00,VWS V14.01,2013-06-22 15:41:00,
2013-06-22 10:46:00,73.9,41.4,26.81,East,92,4.0,4.9,31,0.00,,---,0.00,VWS V14.01,2013-06-22 15:46:00,
2013-06-22 10:51:00,74.3,41.7,26.81,SE,125,4.9,4.9,31,0.00,,---,0.00,VWS V14.01,2013-06-22 15:51:00,
2013-06-22 10:56:00,74.1,41.6,26.81,ESE,116,4.0,4.0,31,0.00,,---,0.00,VWS V14.01,2013-06-22 15:56:00,
2013-06-22 11:01:00,74.1,41.6,26.81,ENE,77,2.7,3.6,31,0.00,,---,0.00,VWS V14.01,2013-06-22 16:01:00,
2013-06-22 11:06:00,75.0,42.4,26.81,ESE,121,3.6,3.6,31,0.00,,---,0.00,VWS V14.01,2013-06-22 16:06:00,
2013-06-22 11:11:00,74.7,42.0,26.81,East,101,5.4,5.4,31,0.00,,---,0.00,VWS V14.01,2013-06-22 16:11:00,
2013-06-22 11:16:00,75.4,42.7,26.81,ESE,114,4.9,4.9,31,0.00,,---,0.00,VWS V14.01,2013-06-22 16:16:00,
2013-06-22 11:21:00,75.2,42.5,26.81,ESE,104,5.8,5.8,31,0.00,,---,0.00,VWS V14.01,2013-06-22 16:21:00,
2013-06-22 11:26:00,75.0,42.4,26.81,ESE,117,6.3,6.3,31,0.00,,---,0.00,VWS V14.01,2013-06-22 16:26:00,
2013-06-22 11:31:00,75.9,43.1,26.81,ESE,107,6.3,6.3,31,0.00,,---,0.00,VWS V14.01,2013-06-22 16:31:00,
2013-06-22 11:36:00,78.8,44.8,26.81,ESE,114,4.9,5.8,30,0.00,,---,0.00,VWS V14.01,2013-06-22 16:36:00,
2013-06-22 11:41:00,79.9,45.7,26.81,ESE,107,5.8,8.3,30,0.00,,---,0.00,VWS V14.01,2013-06-22 16:41:00,
2013-06-22 11:46:00,79.0,44.9,26.78,ESE,115,4.0,4.0,30,0.00,,---,0.00,VWS V14.01,2013-06-22 16:46:00,
2013-06-22 11:51:00,77.0,44.1,26.78,East,90,4.9,5.8,31,0.00,,---,0.00,VWS V14.01,2013-06-22 16:51:00,
2013-06-22 11:56:00,76.8,43.9,26.78,SE,127,5.8,5.8,31,0.00,,---,0.00,VWS V14.01,2013-06-22 16:56:00,
2013-06-22 12:01:00,78.3,45.2,26.78,ESE,119,5.8,5.8,31,0.00,,---,0.00,VWS V14.01,2013-06-22 17:01:00,
2013-06-22 12:06:00,79.2,45.1,26.78,ESE,120,6.3,6.3,30,0.00,,---,0.00,VWS V14.01,2013-06-22 17:06:00,
2013-06-22 12:11:00,79.0,44.9,26.78,ESE,123,6.3,6.3,30,0.00,,---,0.00,VWS V14.01,2013-06-22 17:11:00,
2013-06-22 12:16:00,79.9,45.7,26.78,East,86,4.9,5.8,30,0.00,,---,0.00,VWS V14.01,2013-06-22 17:16:00,
2013-06-22 12:21:00,81.0,46.6,26.78,ESE,122,5.4,5.4,30,0.00,,---,0.00,VWS V14.01,2013-06-22 17:21:00,
2013-06-22 12:26:00,80.6,46.3,26.78,ESE,113,5.8,6.3,30,0.00,,---,0.00,VWS V14.01,2013-06-22 17:26:00,
2013-06-22 12:31:00,81.5,47.1,26.78,ESE,121,5.8,5.8,30,0.00,,---,0.00,VWS V14.01,2013-06-22 17:31:00,
2013-06-22 12:36:00,81.0,46.6,26.78,ESE,116,5.8,5.8,30,0.00,,---,0.00,VWS V14.01,2013-06-22 17:36:00,
2013-06-22 12:41:00,81.1,46.8,26.78,ESE,117,5.4,5.8,30,0.00,,---,0.00,VWS V14.01,2013-06-22 17:41:00,
2013-06-22 12:46:00,82.9,47.5,26.81,SE,125,5.4,5.4,29,0.00,,---,0.00,VWS V14.01,2013-06-22 17:46:00,
2013-06-22 12:51:00,83.3,47.8,26.81,ESE,119,4.0,4.0,29,0.00,,---,0.00,VWS V14.01,2013-06-22 17:51:00,
2013-06-22 12:56:00,83.8,48.2,26.81,SE,127,4.0,5.8,29,0.00,,---,0.00,VWS V14.01,2013-06-22 17:56:00,
2013-06-22 13:01:00,84.2,48.5,26.78,ESE,117,4.0,4.0,29,0.00,,---,0.00,VWS V14.01,2013-06-22 18:01:00,
2013-06-22 13:06:00,83.3,47.8,26.78,ESE,112,4.0,5.4,29,0.00,,---,0.00,VWS V14.01,2013-06-22 18:06:00,
2013-06-22 13:11:00,82.9,47.5,26.78,ESE,103,5.8,5.8,29,0.00,,---,0.00,VWS V14.01,2013-06-22 18:11:00,
2013-06-22 13:16:00,81.7,47.3,26.78,ESE,110,7.6,7.6,30,0.00,,---,0.00,VWS V14.01,2013-06-22 18:16:00,
2013-06-22 13:21:00,84.0,48.4,26.78,ESE,109,4.5,4.5,29,0.00,,---,0.00,VWS V14.01,2013-06-22 18:21:00,
2013-06-22 13:26:00,82.8,47.3,26.78,ESE,122,4.9,4.9,29,0.00,,---,0.00,VWS V14.01,2013-06-22 18:26:00,
2013-06-22 13:31:00,81.9,47.4,26.78,ESE,119,5.4,5.4,30,0.00,,---,0.00,VWS V14.01,2013-06-22 18:31:00,
2013-06-22 13:36:00,83.7,48.1,26.78,ESE,115,3.6,4.9,29,0.00,,---,0.00,VWS V14.01,2013-06-22 18:36:00,
2013-06-22 13:41:00,83.7,48.1,26.78,SE,126,5.8,5.8,29,0.00,,---,0.00,VWS V14.01,2013-06-22 18:41:00,
2013-06-22 13:46:00,83.8,48.2,26.78,SE,130,4.0,4.0,29,0.00,,---,0.00,VWS V14.01,2013-06-22 18:46:00,
2013-06-22 13:51:00,84.4,48.7,26.78,SE,125,2.7,4.5,29,0.00,,---,0.00,VWS V14.01,2013-06-22 18:51:00,
2013-06-22 13:56:00,86.4,50.4,26.78,East,95,4.9,4.9,29,0.00,,---,0.00,VWS V14.01,2013-06-22 18:56:00,
2013-06-22 14:01:00,85.6,49.8,26.78,SE,125,3.6,4.0,29,0.00,,---,0.00,VWS V14.01,2013-06-22 19:01:00,
2013-06-22 14:06:00,85.5,49.6,26.78,ESE,102,3.6,3.6,29,0.00,,---,0.00,VWS V14.01,2013-06-22 19:06:00,
2013-06-22 14:11:00,89.2,51.9,26.78,ESE,114,2.7,3.6,28,0.00,,---,0.00,VWS V14.01,2013-06-22 19:11:00,
2013-06-22 14:16:00,89.6,52.2,26.78,ESE,106,3.1,5.4,28,0.00,,---,0.00,VWS V14.01,2013-06-22 19:16:00,
2013-06-22 14:21:00,90.7,53.1,26.78,ESE,108,2.7,2.7,28,0.00,,---,0.00,VWS V14.01,2013-06-22 19:21:00,
2013-06-22 14:26:00,89.2,51.9,26.78,ENE,74,3.1,3.6,28,0.00,,---,0.00,VWS V14.01,2013-06-22 19:26:00,
2013-06-22 14:31:00,89.2,51.9,26.78,East,91,3.6,3.6,28,0.00,,---,0.00,VWS V14.01,2013-06-22 19:31:00,
2013-06-22 14:36:00,87.1,51.0,26.78,SE,126,2.7,2.7,29,0.00,,---,0.00,VWS V14.01,2013-06-22 19:36:00,
2013-06-22 14:41:00,85.5,49.6,26.78,East,96,3.1,3.1,29,0.00,,---,0.00,VWS V14.01,2013-06-22 19:41:00,
2013-06-22 14:46:00,89.1,51.8,26.75,ENE,75,0.0,3.1,28,0.00,,---,0.00,VWS V14.01,2013-06-22 19:46:00,
2013-06-22 14:51:00,90.0,52.5,26.75,NE,36,4.9,4.9,28,0.00,,---,0.00,VWS V14.01,2013-06-22 19:51:00,
2013-06-22 14:56:00,89.4,52.1,26.75,NE,42,5.8,5.8,28,0.00,,---,0.00,VWS V14.01,2013-06-22 19:56:00,
2013-06-22 15:01:00,86.9,50.8,26.75,NE,38,5.4,5.4,29,0.00,,---,0.00,VWS V14.01,2013-06-22 20:01:00,
2013-06-22 15:06:00,86.9,50.8,26.75,East,88,2.7,2.7,29,0.00,,---,0.00,VWS V14.01,2013-06-22 20:06:00,
2013-06-22 15:11:00,86.2,50.2,26.75,ESE,110,4.0,4.0,29,0.00,,---,0.00,VWS V14.01,2013-06-22 20:11:00,
2013-06-22 15:16:00,84.4,48.7,26.75,ENE,71,6.3,6.3,29,0.00,,---,0.00,VWS V14.01,2013-06-22 20:16:00,
2013-06-22 15:21:00,85.1,49.3,26.75,East,98,3.1,3.1,29,0.00,,---,0.00,VWS V14.01,2013-06-22 20:21:00,
2013-06-22 15:26:00,86.7,50.7,26.75,NE,49,6.3,6.3,29,0.00,,---,0.00,VWS V14.01,2013-06-22 20:26:00,
2013-06-22 15:31:00,87.4,51.3,26.75,ESE,114,4.0,6.3,29,0.00,,---,0.00,VWS V14.01,2013-06-22 20:31:00,
2013-06-22 15:36:00,87.1,51.0,26.75,NE,55,3.6,4.9,29,0.00,,---,0.00,VWS V14.01,2013-06-22 20:36:00,
2013-06-22 15:41:00,88.2,51.0,26.75,East,90,3.1,3.1,28,0.00,,---,0.00,VWS V14.01,2013-06-22 20:41:00,
2013-06-22 15:46:00,86.5,50.5,26.75,ESE,119,4.9,6.3,29,0.00,,---,0.00,VWS V14.01,2013-06-22 20:46:00,
2013-06-22 15:51:00,87.8,50.7,26.72,East,93,3.6,3.6,28,0.00,,---,0.00,VWS V14.01,2013-06-22 20:51:00,
2013-06-22 15:56:00,87.3,51.2,26.72,NE,54,3.6,3.6,29,0.00,,---,0.00,VWS V14.01,2013-06-22 20:56:00,
2013-06-22 16:01:00,86.9,50.8,26.72,NE,34,4.5,9.2,29,0.00,,---,0.00,VWS V14.01,2013-06-22 21:01:00,
2013-06-22 16:06:00,86.5,50.5,26.72,ESE,105,7.2,7.2,29,0.00,,---,0.00,VWS V14.01,2013-06-22 21:06:00,
2013-06-22 16:11:00,86.4,50.4,26.72,NE,42,5.8,6.3,29,0.00,,---,0.00,VWS V14.01,2013-06-22 21:11:00,
2013-06-22 16:16:00,85.6,49.8,26.72,ESE,116,4.9,7.6,29,0.00,,---,0.00,VWS V14.01,2013-06-22 21:16:00,
2013-06-22 16:21:00,87.3,51.2,26.72,East,82,3.1,5.4,29,0.00,,---,0.00,VWS V14.01,2013-06-22 21:21:00,
2013-06-22 16:26:00,87.4,51.3,26.72,NNE,33,6.3,6.3,29,0.00,,---,0.00,VWS V14.01,2013-06-22 21:26:00,
2013-06-22 16:31:00,86.7,50.7,26.72,ENE,69,4.0,5.8,29,0.00,,---,0.00,VWS V14.01,2013-06-22 21:31:00,
2013-06-22 16:36:00,86.7,50.7,26.72,NE,48,5.8,5.8,29,0.00,,---,0.00,VWS V14.01,2013-06-22 21:36:00,
2013-06-22 16:41:00,87.4,51.3,26.72,NE,52,5.4,6.3,29,0.00,,---,0.00,VWS V14.01,2013-06-22 21:41:00,
2013-06-22 16:46:00,87.1,51.0,26.70,NE,48,10.1,10.1,29,0.00,,---,0.00,VWS V14.01,2013-06-22 21:46:00,
2013-06-22 16:51:00,86.7,50.7,26.70,NE,47,6.3,6.3,29,0.00,,---,0.00,VWS V14.01,2013-06-22 21:51:00,
2013-06-22 16:56:00,86.9,50.8,26.70,East,96,7.2,7.2,29,0.00,,---,0.00,VWS V14.01,2013-06-22 21:56:00,
2013-06-22 17:01:00,87.3,51.2,26.70,NE,54,5.8,5.8,29,0.00,,---,0.00,VWS V14.01,2013-06-22 22:01:00,
2013-06-22 17:06:00,86.7,50.7,26.70,NE,43,6.3,8.1,29,0.00,,---,0.00,VWS V14.01,2013-06-22 22:06:00,
2013-06-22 17:11:00,86.9,50.8,26.70,NE,36,5.8,7.6,29,0.00,,---,0.00,VWS V14.01,2013-06-22 22:11:00,
2013-06-22 17:16:00,87.3,51.2,26.67,NNE,33,8.7,8.7,29,0.00,,---,0.00,VWS V14.01,2013-06-22 22:16:00,
2013-06-22 17:21:00,87.3,51.2,26.67,NNE,19,10.5,10.5,29,0.00,,---,0.00,VWS V14.01,2013-06-22 22:21:00,
2013-06-22 17:26:00,85.3,49.5,26.67,NE,52,8.1,8.1,29,0.00,,---,0.00,VWS V14.01,2013-06-22 22:26:00,
2013-06-22 17:31:00,85.3,49.5,26.67,NNE,21,4.9,6.7,29,0.00,,---,0.00,VWS V14.01,2013-06-22 22:31:00,
2013-06-22 17:36:00,84.4,48.7,26.67,ENE,59,8.3,8.3,29,0.00,,---,0.00,VWS V14.01,2013-06-22 22:36:00,
2013-06-22 17:41:00,82.6,47.1,26.67,NE,42,10.1,10.1,29,0.00,,---,0.00,VWS V14.01,2013-06-22 22:41:00,
2013-06-22 17:46:00,81.1,46.8,26.67,NE,50,8.1,8.7,30,0.00,,---,0.00,VWS V14.01,2013-06-22 22:46:00,
2013-06-22 17:51:00,79.2,45.1,26.67,NE,51,5.8,6.7,30,0.00,,---,0.00,VWS V14.01,2013-06-22 22:51:00,
2013-06-22 17:56:00,75.7,43.0,26.67,NE,43,5.4,5.4,31,0.00,,---,0.00,VWS V14.01,2013-06-22 22:56:00,
2013-06-22 18:01:00,75.2,42.5,26.67,NE,46,3.1,5.4,31,0.00,,---,0.00,VWS V14.01,2013-06-22 23:01:00,
2013-06-22 18:06:00,75.0,42.4,26.67,NE,52,3.6,3.6,31,0.00,,---,0.00,VWS V14.01,2013-06-22 23:06:00,
2013-06-22 18:11:00,74.7,42.9,26.67,NE,35,0.0,2.7,32,0.00,,---,0.00,VWS V14.01,2013-06-22 23:11:00,
2013-06-22 18:16:00,74.7,42.9,26.67,North,11,2.7,2.7,32,0.00,,---,0.00,VWS V14.01,2013-06-22 23:16:00,
2013-06-22 18:21:00,75.0,43.2,26.67,NE,37,2.7,2.7,32,0.00,,---,0.00,VWS V14.01,2013-06-22 23:21:00,
2013-06-22 18:26:00,75.2,43.3,26.67,NE,47,5.4,5.4,32,0.00,,---,0.00,VWS V14.01,2013-06-22 23:26:00,
2013-06-22 18:31:00,75.4,42.7,26.67,NE,37,4.9,5.4,31,0.00,,---,0.00,VWS V14.01,2013-06-22 23:31:00,
2013-06-22 18:36:00,77.4,44.4,26.67,NE,42,5.4,5.8,31,0.00,,---,0.00,VWS V14.01,2013-06-22 23:36:00,
2013-06-22 18:41:00,80.2,46.0,26.67,NE,47,5.4,5.4,30,0.00,,---,0.00,VWS V14.01,2013-06-22 23:41:00,
2013-06-22 18:46:00,82.0,47.6,26.64,NE,41,3.1,8.3,30,0.04,,---,0.04,VWS V14.01,2013-06-22 23:46:00,
2013-06-22 18:51:00,84.6,48.8,26.64,NE,44,3.1,5.4,29,0.04,,---,0.04,VWS V14.01,2013-06-22 23:51:00,
2013-06-22 18:56:00,86.7,50.7,26.64,NE,55,2.7,3.1,29,0.04,,---,0.04,VWS V14.01,2013-06-22 23:56:00,
2013-06-22 19:01:00,87.4,51.3,26.64,East,81,3.1,3.1,29,0.04,,---,0.04,VWS V14.01,2013-06-23 00:01:00,
2013-06-22 19:06:00,87.3,51.2,26.64,East,93,2.7,2.7,29,0.04,,---,0.04,VWS V14.01,2013-06-23 00:06:00,
2013-06-22 19:11:00,87.4,51.3,26.64,East,101,3.1,3.1,29,0.04,,---,0.04,VWS V14.01,2013-06-23 00:11:00,
2013-06-22 19:16:00,87.6,51.5,26.64,ENE,75,3.1,3.1,29,0.04,,---,0.04,VWS V14.01,2013-06-23 00:16:00,
2013-06-22 19:21:00,87.1,51.0,26.64,East,94,2.7,3.1,29,0.04,,---,0.04,VWS V14.01,2013-06-23 00:21:00,
2013-06-22 19:26:00,87.3,51.2,26.64,ESE,102,3.1,3.6,29,0.04,,---,0.04,VWS V14.01,2013-06-23 00:26:00,
2013-06-22 19:31:00,87.3,51.2,26.64,ESE,103,3.6,3.6,29,0.04,,---,0.04,VWS V14.01,2013-06-23 00:31:00,
2013-06-22 19:36:00,86.9,50.8,26.64,ESE,114,3.1,4.9,29,0.04,,---,0.04,VWS V14.01,2013-06-23 00:36:00,
2013-06-22 19:41:00,86.5,50.5,26.64,ESE,119,4.9,5.4,29,0.04,,---,0.04,VWS V14.01,2013-06-23 00:41:00,
2013-06-22 19:46:00,86.7,50.7,26.64,SE,125,6.3,7.6,29,0.00,,---,0.04,VWS V14.01,2013-06-23 00:46:00,
2013-06-22 19:51:00,86.7,50.7,26.64,SE,126,5.8,5.8,29,0.00,,---,0.04,VWS V14.01,2013-06-23 00:51:00,
2013-06-22 19:56:00,86.7,50.7,26.64,SE,131,6.7,8.1,29,0.00,,---,0.04,VWS V14.01,2013-06-23 00:56:00,
2013-06-22 20:01:00,86.9,50.8,26.64,SE,133,6.3,6.3,29,0.00,,---,0.04,VWS V14.01,2013-06-23 01:01:00,
2013-06-22 20:06:00,86.4,50.4,26.64,SE,126,5.8,6.3,29,0.00,,---,0.04,VWS V14.01,2013-06-23 01:06:00,
2013-06-22 20:11:00,86.0,50.1,26.64,SE,126,6.7,7.6,29,0.00,,---,0.04,VWS V14.01,2013-06-23 01:11:00,
2013-06-22 20:16:00,85.5,49.6,26.64,SE,127,5.8,5.8,29,0.00,,---,0.04,VWS V14.01,2013-06-23 01:16:00,
2013-06-22 20:21:00,85.3,49.5,26.64,ESE,118,7.6,7.6,29,0.00,,---,0.04,VWS V14.01,2013-06-23 01:21:00,
2013-06-22 20:26:00,85.1,49.3,26.64,SE,127,4.9,4.9,29,0.00,,---,0.04,VWS V14.01,2013-06-23 01:26:00,
2013-06-22 20:31:00,84.0,48.4,26.64,SE,126,5.4,5.4,29,0.00,,---,0.04,VWS V14.01,2013-06-23 01:31:00,
2013-06-22 20:36:00,83.5,47.9,26.64,SE,128,4.0,4.9,29,0.00,,---,0.04,VWS V14.01,2013-06-23 01:36:00,
2013-06-22 20:41:00,82.9,47.5,26.64,SE,128,4.0,4.0,29,0.00,,---,0.04,VWS V14.01,2013-06-23 01:41:00,
2013-06-22 20:46:00,82.2,47.7,26.64,SE,128,4.0,4.0,30,0.00,,---,0.04,VWS V14.01,2013-06-23 01:46:00,
2013-06-22 20:51:00,82.0,47.6,26.67,SE,128,4.0,4.0,30,0.00,,---,0.04,VWS V14.01,2013-06-23 01:51:00,
2013-06-22 20:56:00,81.7,47.3,26.67,SE,128,3.6,4.0,30,0.00,,---,0.04,VWS V14.01,2013-06-23 01:56:00,
2013-06-22 21:01:00,81.9,47.4,26.67,SE,128,5.4,5.4,30,0.00,,---,0.04,VWS V14.01,2013-06-23 02:01:00,
2013-06-22 21:06:00,81.5,47.1,26.67,SE,128,4.0,4.9,30,0.00,,---,0.04,VWS V14.01,2013-06-23 02:06:00,
2013-06-22 21:11:00,81.5,47.1,26.67,SE,128,5.4,5.4,30,0.00,,---,0.04,VWS V14.01,2013-06-23 02:11:00,
2013-06-22 21:16:00,81.5,47.1,26.64,SE,130,4.9,5.4,30,0.00,,---,0.04,VWS V14.01,2013-06-23 02:16:00,
2013-06-22 21:21:00,81.7,47.3,26.64,SE,136,4.9,4.9,30,0.00,,---,0.04,VWS V14.01,2013-06-23 02:21:00,
2013-06-22 21:26:00,81.5,47.1,26.64,SE,135,5.4,5.4,30,0.00,,---,0.04,VWS V14.01,2013-06-23 02:26:00,
2013-06-22 21:31:00,81.9,47.4,26.64,SE,136,6.3,6.3,30,0.00,,---,0.04,VWS V14.01,2013-06-23 02:31:00,
2013-06-22 21:36:00,82.0,47.6,26.64,SE,131,5.8,5.8,30,0.00,,---,0.04,VWS V14.01,2013-06-23 02:36:00,
2013-06-22 21:41:00,82.0,47.6,26.64,SE,133,7.2,7.2,30,0.00,,---,0.04,VWS V14.01,2013-06-23 02:41:00,
2013-06-22 21:46:00,82.2,47.7,26.67,SE,136,5.8,5.8,30,0.00,,---,0.04,VWS V14.01,2013-06-23 02:46:00,
2013-06-22 21:51:00,82.2,47.7,26.67,SE,133,5.4,5.4,30,0.00,,---,0.04,VWS V14.01,2013-06-23 02:51:00,
2013-06-22 21:56:00,81.9,47.4,26.67,SE,140,5.4,5.4,30,0.00,,---,0.04,VWS V14.01,2013-06-23 02:56:00,
2013-06-22 22:01:00,81.9,47.4,26.67,SE,143,5.8,6.7,30,0.00,,---,0.04,VWS V14.01,2013-06-23 03:01:00,
2013-06-22 22:06:00,81.9,47.4,26.67,SE,145,6.3,6.3,30,0.00,,---,0.04,VWS V14.01,2013-06-23 03:06:00,
2013-06-22 22:11:00,81.9,47.4,26.67,South,174,5.8,5.8,30,0.00,,---,0.04,VWS V14.01,2013-06-23 03:11:00,
2013-06-22 22:16:00,81.9,47.4,26.67,SSE,155,7.6,7.6,30,0.00,,---,0.04,VWS V14.01,2013-06-23 03:16:00,
2013-06-22 22:21:00,82.4,47.0,26.67,South,178,6.3,7.6,29,0.00,,---,0.04,VWS V14.01,2013-06-23 03:21:00,
2013-06-22 22:26:00,82.4,47.0,26.67,South,177,10.5,11.9,29,0.00,,---,0.04,VWS V14.01,2013-06-23 03:26:00,
2013-06-22 22:31:00,82.4,47.0,26.67,SSW,208,10.1,10.5,29,0.00,,---,0.04,VWS V14.01,2013-06-23 03:31:00,
2013-06-22 22:36:00,81.9,47.4,26.70,WSW,252,5.4,5.4,30,0.00,,---,0.04,VWS V14.01,2013-06-23 03:36:00,
2013-06-22 22:41:00,79.5,45.4,26.70,South,187,8.3,8.3,30,0.00,,---,0.04,VWS V14.01,2013-06-23 03:41:00,
2013-06-22 22:46:00,73.6,41.1,26.70,SW,233,9.6,9.6,31,0.04,,---,0.08,VWS V14.01,2013-06-23 03:46:00,
2013-06-22 22:51:00,73.6,41.1,26.70,SSW,212,0.0,0.0,31,0.04,,---,0.08,VWS V14.01,2013-06-23 03:51:00,
2013-06-22 22:56:00,73.6,41.1,26.70,South,177,3.6,3.6,31,0.04,,---,0.08,VWS V14.01,2013-06-23 03:56:00,
2013-06-22 23:01:00,73.6,41.1,26.67,ESE,123,2.7,2.7,31,0.04,,---,0.08,VWS V14.01,2013-06-23 04:01:00,
2013-06-22 23:06:00,73.6,41.1,26.67,ESE,123,0.0,0.0,31,0.04,,---,0.08,VWS V14.01,2013-06-23 04:06:00,
2013-06-22 23:11:00,74.3,41.7,26.67,ESE,123,0.0,0.0,31,0.04,,---,0.08,VWS V14.01,2013-06-23 04:11:00,
2013-06-22 23:16:00,74.7,42.0,26.67,ESE,123,2.7,2.7,31,0.04,,---,0.08,VWS V14.01,2013-06-23 04:16:00,
2013-06-22 23:21:00,74.7,42.0,26.67,ESE,123,2.7,2.7,31,0.04,,---,0.08,VWS V14.01,2013-06-23 04:21:00,
2013-06-22 23:26:00,74.7,42.0,26.67,SE,124,2.7,2.7,31,0.04,,---,0.08,VWS V14.01,2013-06-23 04:26:00,
2013-06-22 23:31:00,72.3,40.8,26.72,WSW,257,8.3,8.3,32,0.08,,---,0.12,VWS V14.01,2013-06-23 04:31:00,
2013-06-22 23:36:00,71.1,39.7,26.72,South,175,5.4,5.4,32,0.08,,---,0.12,VWS V14.01,2013-06-23 04:36:00,
2013-06-22 23:41:00,70.3,39.1,26.72,NW,324,5.8,13.6,32,0.08,,---,0.12,VWS V14.01,2013-06-23 04:41:00,
2013-06-22 23:46:00,70.3,39.1,26.75,WSW,257,12.3,12.3,32,0.04,,---,0.12,VWS V14.01,2013-06-23 04:46:00,
2013-06-22 23:51:00,64.2,35.3,26.75,North,353,6.3,6.3,34,0.04,,---,0.12,VWS V14.01,2013-06-23 04:51:00,
2013-06-22 23:56:00,62.6,33.9,26.75,North,353,12.8,12.8,34,0.04,,---,0.12,VWS V14.01,2013-06-23 04:56:00,